﻿<?xml version="1.0" encoding="utf-8"?><gpx creator="Garmin Desktop App" version="1.1" xsi:schemaLocation="http://www.topografix.com/GPX/1/1 http://www.topografix.com/GPX/1/1/gpx.xsd http://www.garmin.com/xmlschemas/WaypointExtension/v1 http://www8.garmin.com/xmlschemas/WaypointExtensionv1.xsd http://www.garmin.com/xmlschemas/TrackPointExtension/v1 http://www.garmin.com/xmlschemas/TrackPointExtensionv1.xsd http://www.garmin.com/xmlschemas/GpxExtensions/v3 http://www8.garmin.com/xmlschemas/GpxExtensionsv3.xsd http://www.garmin.com/xmlschemas/ActivityExtension/v1 http://www8.garmin.com/xmlschemas/ActivityExtensionv1.xsd http://www.garmin.com/xmlschemas/AdventuresExtensions/v1 http://www8.garmin.com/xmlschemas/AdventuresExtensionv1.xsd http://www.garmin.com/xmlschemas/PressureExtension/v1 http://www.garmin.com/xmlschemas/PressureExtensionv1.xsd http://www.garmin.com/xmlschemas/TripExtensions/v1 http://www.garmin.com/xmlschemas/TripExtensionsv1.xsd http://www.garmin.com/xmlschemas/TripMetaDataExtensions/v1 http://www.garmin.com/xmlschemas/TripMetaDataExtensionsv1.xsd http://www.garmin.com/xmlschemas/ViaPointTransportationModeExtensions/v1 http://www.garmin.com/xmlschemas/ViaPointTransportationModeExtensionsv1.xsd http://www.garmin.com/xmlschemas/CreationTimeExtension/v1 http://www.garmin.com/xmlschemas/CreationTimeExtensionsv1.xsd http://www.garmin.com/xmlschemas/AccelerationExtension/v1 http://www.garmin.com/xmlschemas/AccelerationExtensionv1.xsd http://www.garmin.com/xmlschemas/PowerExtension/v1 http://www.garmin.com/xmlschemas/PowerExtensionv1.xsd http://www.garmin.com/xmlschemas/VideoExtension/v1 http://www.garmin.com/xmlschemas/VideoExtensionv1.xsd" xmlns="http://www.topografix.com/GPX/1/1" xmlns:xsi="http://www.w3.org/2001/XMLSchema-instance" xmlns:wptx1="http://www.garmin.com/xmlschemas/WaypointExtension/v1" xmlns:gpxtrx="http://www.garmin.com/xmlschemas/GpxExtensions/v3" xmlns:gpxtpx="http://www.garmin.com/xmlschemas/TrackPointExtension/v1" xmlns:gpxx="http://www.garmin.com/xmlschemas/GpxExtensions/v3" xmlns:trp="http://www.garmin.com/xmlschemas/TripExtensions/v1" xmlns:adv="http://www.garmin.com/xmlschemas/AdventuresExtensions/v1" xmlns:prs="http://www.garmin.com/xmlschemas/PressureExtension/v1" xmlns:tmd="http://www.garmin.com/xmlschemas/TripMetaDataExtensions/v1" xmlns:vptm="http://www.garmin.com/xmlschemas/ViaPointTransportationModeExtensions/v1" xmlns:ctx="http://www.garmin.com/xmlschemas/CreationTimeExtension/v1" xmlns:gpxacc="http://www.garmin.com/xmlschemas/AccelerationExtension/v1" xmlns:gpxpx="http://www.garmin.com/xmlschemas/PowerExtension/v1" xmlns:vidx1="http://www.garmin.com/xmlschemas/VideoExtension/v1">

  <metadata>
    <link href="http://www.garmin.com">
      <text>Garmin International</text>
    </link>
    <time>2021-10-11T11:22:17Z</time>
    <bounds maxlat="50.312288962304592" maxlon="6.529408022761345" minlat="50.206650998443365" minlon="6.427591033279896" />
  </metadata>

  <trk>
    <name>-Prüm shonfeld 19 km</name>
    <extensions>
      <gpxx:TrackExtension>
        <gpxx:DisplayColor>Magenta</gpxx:DisplayColor>
      </gpxx:TrackExtension>
    </extensions>
    <trkseg>
      <trkpt lat="50.309769026935101" lon="6.516310963779688">
        <ele>0</ele>
        <time>1970-01-01T00:00:00Z</time>
      </trkpt>
      <trkpt lat="50.309781013056636" lon="6.516001001000404">
        <ele>0</ele>
        <time>1970-01-01T00:00:00Z</time>
      </trkpt>
      <trkpt lat="50.309970024973154" lon="6.516020027920604">
        <ele>0</ele>
        <time>1970-01-01T00:00:00Z</time>
      </trkpt>
      <trkpt lat="50.309943035244942" lon="6.51773395948112">
        <ele>0</ele>
        <time>1970-01-01T00:00:00Z</time>
      </trkpt>
      <trkpt lat="50.309874974191189" lon="6.519562974572182">
        <ele>0</ele>
        <time>1970-01-01T00:00:00Z</time>
      </trkpt>
      <trkpt lat="50.310072032734752" lon="6.519974023103714">
        <ele>0</ele>
        <time>1970-01-01T00:00:00Z</time>
      </trkpt>
      <trkpt lat="50.310118971392512" lon="6.520463023334742">
        <ele>0</ele>
        <time>1970-01-01T00:00:00Z</time>
      </trkpt>
      <trkpt lat="50.310127018019557" lon="6.520868958905339">
        <ele>0</ele>
        <time>1970-01-01T00:00:00Z</time>
      </trkpt>
      <trkpt lat="50.310536976903677" lon="6.521507995203137">
        <ele>0</ele>
        <time>1970-01-01T00:00:00Z</time>
      </trkpt>
      <trkpt lat="50.310535971075296" lon="6.521479999646545">
        <ele>0</ele>
        <time>1970-01-01T00:00:00Z</time>
      </trkpt>
      <trkpt lat="50.310824979096651" lon="6.521984003484249">
        <ele>0</ele>
        <time>1970-01-01T00:00:00Z</time>
      </trkpt>
      <trkpt lat="50.310784997418523" lon="6.522604012861848">
        <ele>0</ele>
        <time>1970-01-01T00:00:00Z</time>
      </trkpt>
      <trkpt lat="50.311995008960366" lon="6.525799026712775">
        <ele>0</ele>
        <time>1970-01-01T00:00:00Z</time>
      </trkpt>
      <trkpt lat="50.312288962304592" lon="6.526528000831604">
        <ele>0</ele>
        <time>1970-01-01T00:00:00Z</time>
      </trkpt>
      <trkpt lat="50.310357017442584" lon="6.528257019817829">
        <ele>0</ele>
        <time>1970-01-01T00:00:00Z</time>
      </trkpt>
      <trkpt lat="50.310115031898022" lon="6.528298007324338">
        <ele>0</ele>
        <time>1970-01-01T00:00:00Z</time>
      </trkpt>
      <trkpt lat="50.309891989454627" lon="6.528815003111959">
        <ele>0</ele>
        <time>1970-01-01T00:00:00Z</time>
      </trkpt>
      <trkpt lat="50.309857958927751" lon="6.529322024434805">
        <ele>0</ele>
        <time>1970-01-01T00:00:00Z</time>
      </trkpt>
      <trkpt lat="50.309554031118751" lon="6.529408022761345">
        <ele>0</ele>
        <time>1970-01-01T00:00:00Z</time>
      </trkpt>
      <trkpt lat="50.309464009478688" lon="6.529005020856857">
        <ele>0</ele>
        <time>1970-01-01T00:00:00Z</time>
      </trkpt>
      <trkpt lat="50.30948999337852" lon="6.528499005362392">
        <ele>0</ele>
        <time>1970-01-01T00:00:00Z</time>
      </trkpt>
      <trkpt lat="50.308806030079722" lon="6.527621001005173">
        <ele>0</ele>
        <time>1970-01-01T00:00:00Z</time>
      </trkpt>
      <trkpt lat="50.308421971276402" lon="6.526924967765808">
        <ele>0</ele>
        <time>1970-01-01T00:00:00Z</time>
      </trkpt>
      <trkpt lat="50.307758040726185" lon="6.526552978903055">
        <ele>0</ele>
        <time>1970-01-01T00:00:00Z</time>
      </trkpt>
      <trkpt lat="50.30652497895062" lon="6.526490030810237">
        <ele>0</ele>
        <time>1970-01-01T00:00:00Z</time>
      </trkpt>
      <trkpt lat="50.305891977623105" lon="6.526353992521763">
        <ele>0</ele>
        <time>1970-01-01T00:00:00Z</time>
      </trkpt>
      <trkpt lat="50.30484901741147" lon="6.525902962312102">
        <ele>0</ele>
        <time>1970-01-01T00:00:00Z</time>
      </trkpt>
      <trkpt lat="50.304260021075606" lon="6.525695007294416">
        <ele>0</ele>
        <time>1970-01-01T00:00:00Z</time>
      </trkpt>
      <trkpt lat="50.303918961435556" lon="6.525333998724818">
        <ele>0</ele>
        <time>1970-01-01T00:00:00Z</time>
      </trkpt>
      <trkpt lat="50.30368996784091" lon="6.52471398934722">
        <ele>0</ele>
        <time>1970-01-01T00:00:00Z</time>
      </trkpt>
      <trkpt lat="50.303088985383511" lon="6.525614960119128">
        <ele>0</ele>
        <time>1970-01-01T00:00:00Z</time>
      </trkpt>
      <trkpt lat="50.302901985123754" lon="6.525259986519814">
        <ele>0</ele>
        <time>1970-01-01T00:00:00Z</time>
      </trkpt>
      <trkpt lat="50.303092002868652" lon="6.524057015776634">
        <ele>0</ele>
        <time>1970-01-01T00:00:00Z</time>
      </trkpt>
      <trkpt lat="50.301202973350883" lon="6.521487962454557">
        <ele>0</ele>
        <time>1970-01-01T00:00:00Z</time>
      </trkpt>
      <trkpt lat="50.300756972283125" lon="6.521243965253234">
        <ele>0</ele>
        <time>1970-01-01T00:00:00Z</time>
      </trkpt>
      <trkpt lat="50.300136962905526" lon="6.52123499661684">
        <ele>0</ele>
        <time>1970-01-01T00:00:00Z</time>
      </trkpt>
      <trkpt lat="50.299612004309893" lon="6.521093007177115">
        <ele>0</ele>
        <time>1970-01-01T00:00:00Z</time>
      </trkpt>
      <trkpt lat="50.298794014379382" lon="6.520265964791179">
        <ele>0</ele>
        <time>1970-01-01T00:00:00Z</time>
      </trkpt>
      <trkpt lat="50.298199988901615" lon="6.519819041714072">
        <ele>0</ele>
        <time>1970-01-01T00:00:00Z</time>
      </trkpt>
      <trkpt lat="50.297676036134362" lon="6.519677974283695">
        <ele>0</ele>
        <time>1970-01-01T00:00:00Z</time>
      </trkpt>
      <trkpt lat="50.296546993777156" lon="6.5207190066576">
        <ele>0</ele>
        <time>1970-01-01T00:00:00Z</time>
      </trkpt>
      <trkpt lat="50.295586008578539" lon="6.521203983575106">
        <ele>0</ele>
        <time>1970-01-01T00:00:00Z</time>
      </trkpt>
      <trkpt lat="50.294733988121152" lon="6.520883962512016">
        <ele>0</ele>
        <time>1970-01-01T00:00:00Z</time>
      </trkpt>
      <trkpt lat="50.293989004567266" lon="6.519659031182528">
        <ele>0</ele>
        <time>1970-01-01T00:00:00Z</time>
      </trkpt>
      <trkpt lat="50.293279979377985" lon="6.518896026536822">
        <ele>0</ele>
        <time>1970-01-01T00:00:00Z</time>
      </trkpt>
      <trkpt lat="50.292221009731293" lon="6.518136961385608">
        <ele>0</ele>
        <time>1970-01-01T00:00:00Z</time>
      </trkpt>
      <trkpt lat="50.291556995362043" lon="6.517358031123877">
        <ele>0</ele>
        <time>1970-01-01T00:00:00Z</time>
      </trkpt>
      <trkpt lat="50.291576022282243" lon="6.517019988968968">
        <ele>0</ele>
        <time>1970-01-01T00:00:00Z</time>
      </trkpt>
      <trkpt lat="50.29071100987494" lon="6.517331041395664">
        <ele>0</ele>
        <time>1970-01-01T00:00:00Z</time>
      </trkpt>
      <trkpt lat="50.290185967460275" lon="6.518004024401307">
        <ele>0</ele>
        <time>1970-01-01T00:00:00Z</time>
      </trkpt>
      <trkpt lat="50.288985008373857" lon="6.519456021487713">
        <ele>0</ele>
        <time>1970-01-01T00:00:00Z</time>
      </trkpt>
      <trkpt lat="50.288780992850661" lon="6.517067011445761">
        <ele>0</ele>
        <time>1970-01-01T00:00:00Z</time>
      </trkpt>
      <trkpt lat="50.288351001217961" lon="6.515026018023491">
        <ele>0</ele>
        <time>1970-01-01T00:00:00Z</time>
      </trkpt>
      <trkpt lat="50.287871975451708" lon="6.514068972319365">
        <ele>0</ele>
        <time>1970-01-01T00:00:00Z</time>
      </trkpt>
      <trkpt lat="50.287413988262415" lon="6.512844040989876">
        <ele>0</ele>
        <time>1970-01-01T00:00:00Z</time>
      </trkpt>
      <trkpt lat="50.286788027733564" lon="6.512160999700427">
        <ele>0</ele>
        <time>1970-01-01T00:00:00Z</time>
      </trkpt>
      <trkpt lat="50.285629983991385" lon="6.511406963691115">
        <ele>0</ele>
        <time>1970-01-01T00:00:00Z</time>
      </trkpt>
      <trkpt lat="50.283768028020859" lon="6.512627033516765">
        <ele>0</ele>
        <time>1970-01-01T00:00:00Z</time>
      </trkpt>
      <trkpt lat="50.281844967976213" lon="6.513948021456599">
        <ele>0</ele>
        <time>1970-01-01T00:00:00Z</time>
      </trkpt>
      <trkpt lat="50.281177014112473" lon="6.513841990381479">
        <ele>0</ele>
        <time>1970-01-01T00:00:00Z</time>
      </trkpt>
      <trkpt lat="50.280617019161582" lon="6.514109959825873">
        <ele>0</ele>
        <time>1970-01-01T00:00:00Z</time>
      </trkpt>
      <trkpt lat="50.279312962666154" lon="6.514136027544737">
        <ele>0</ele>
        <time>1970-01-01T00:00:00Z</time>
      </trkpt>
      <trkpt lat="50.27859496884048" lon="6.514622010290623">
        <ele>0</ele>
        <time>1970-01-01T00:00:00Z</time>
      </trkpt>
      <trkpt lat="50.277451006695628" lon="6.516196969896555">
        <ele>0</ele>
        <time>1970-01-01T00:00:00Z</time>
      </trkpt>
      <trkpt lat="50.277094021439552" lon="6.51672100648284">
        <ele>0</ele>
        <time>1970-01-01T00:00:00Z</time>
      </trkpt>
      <trkpt lat="50.276476023718715" lon="6.51685100980103">
        <ele>0</ele>
        <time>1970-01-01T00:00:00Z</time>
      </trkpt>
      <trkpt lat="50.275963973253965" lon="6.517285024747253">
        <ele>0</ele>
        <time>1970-01-01T00:00:00Z</time>
      </trkpt>
      <trkpt lat="50.275490982457995" lon="6.517477976158261">
        <ele>0</ele>
        <time>1970-01-01T00:00:00Z</time>
      </trkpt>
      <trkpt lat="50.275055039674044" lon="6.517275972291827">
        <ele>0</ele>
        <time>1970-01-01T00:00:00Z</time>
      </trkpt>
      <trkpt lat="50.274708028882742" lon="6.516579017043114">
        <ele>0</ele>
        <time>1970-01-01T00:00:00Z</time>
      </trkpt>
      <trkpt lat="50.2731370087713" lon="6.515032975003123">
        <ele>0</ele>
        <time>1970-01-01T00:00:00Z</time>
      </trkpt>
      <trkpt lat="50.272136041894555" lon="6.514482032507658">
        <ele>0</ele>
        <time>1970-01-01T00:00:00Z</time>
      </trkpt>
      <trkpt lat="50.270849000662565" lon="6.513974005356431">
        <ele>0</ele>
        <time>1970-01-01T00:00:00Z</time>
      </trkpt>
      <trkpt lat="50.26976496912539" lon="6.513315020129085">
        <ele>0</ele>
        <time>1970-01-01T00:00:00Z</time>
      </trkpt>
      <trkpt lat="50.268760984763503" lon="6.512623010203242">
        <ele>0</ele>
        <time>1970-01-01T00:00:00Z</time>
      </trkpt>
      <trkpt lat="50.26673499494791" lon="6.512097967788577">
        <ele>0</ele>
        <time>1970-01-01T00:00:00Z</time>
      </trkpt>
      <trkpt lat="50.265822038054466" lon="6.512270970270038">
        <ele>0</ele>
        <time>1970-01-01T00:00:00Z</time>
      </trkpt>
      <trkpt lat="50.264587970450521" lon="6.512167034670711">
        <ele>0</ele>
        <time>1970-01-01T00:00:00Z</time>
      </trkpt>
      <trkpt lat="50.264633987098932" lon="6.512235011905432">
        <ele>0</ele>
        <time>1970-01-01T00:00:00Z</time>
      </trkpt>
      <trkpt lat="50.263563031330705" lon="6.511757997795939">
        <ele>0</ele>
        <time>1970-01-01T00:00:00Z</time>
      </trkpt>
      <trkpt lat="50.26280103251338" lon="6.511419033631682">
        <ele>0</ele>
        <time>1970-01-01T00:00:00Z</time>
      </trkpt>
      <trkpt lat="50.262333992868662" lon="6.511036986485124">
        <ele>0</ele>
        <time>1970-01-01T00:00:00Z</time>
      </trkpt>
      <trkpt lat="50.26174801401794" lon="6.510969009250403">
        <ele>0</ele>
        <time>1970-01-01T00:00:00Z</time>
      </trkpt>
      <trkpt lat="50.260238014161587" lon="6.511411992833018">
        <ele>0</ele>
        <time>1970-01-01T00:00:00Z</time>
      </trkpt>
      <trkpt lat="50.258493991568685" lon="6.508935978636146">
        <ele>0</ele>
        <time>1970-01-01T00:00:00Z</time>
      </trkpt>
      <trkpt lat="50.257629984989762" lon="6.505952021107078">
        <ele>0</ele>
        <time>1970-01-01T00:00:00Z</time>
      </trkpt>
      <trkpt lat="50.257554966956377" lon="6.503319013863802">
        <ele>0</ele>
        <time>1970-01-01T00:00:00Z</time>
      </trkpt>
      <trkpt lat="50.257422029972076" lon="6.50213398039341">
        <ele>0</ele>
        <time>1970-01-01T00:00:00Z</time>
      </trkpt>
      <trkpt lat="50.257202005013824" lon="6.501108035445213">
        <ele>0</ele>
        <time>1970-01-01T00:00:00Z</time>
      </trkpt>
      <trkpt lat="50.256970999762416" lon="6.500375960022211">
        <ele>0</ele>
        <time>1970-01-01T00:00:00Z</time>
      </trkpt>
      <trkpt lat="50.256204977631569" lon="6.499055977910757">
        <ele>0</ele>
        <time>1970-01-01T00:00:00Z</time>
      </trkpt>
      <trkpt lat="50.255758976563811" lon="6.498405961319804">
        <ele>0</ele>
        <time>1970-01-01T00:00:00Z</time>
      </trkpt>
      <trkpt lat="50.255008963868022" lon="6.496551968157291">
        <ele>0</ele>
        <time>1970-01-01T00:00:00Z</time>
      </trkpt>
      <trkpt lat="50.253083975985646" lon="6.492768963798881">
        <ele>0</ele>
        <time>1970-01-01T00:00:00Z</time>
      </trkpt>
      <trkpt lat="50.252447035163641" lon="6.491582002490759">
        <ele>0</ele>
        <time>1970-01-01T00:00:00Z</time>
      </trkpt>
      <trkpt lat="50.251940013840795" lon="6.490976996719837">
        <ele>0</ele>
        <time>1970-01-01T00:00:00Z</time>
      </trkpt>
      <trkpt lat="50.251344982534647" lon="6.489690961316228">
        <ele>0</ele>
        <time>1970-01-01T00:00:00Z</time>
      </trkpt>
      <trkpt lat="50.250737965106964" lon="6.48864297196269">
        <ele>0</ele>
        <time>1970-01-01T00:00:00Z</time>
      </trkpt>
      <trkpt lat="50.250056013464928" lon="6.487864963710308">
        <ele>0</ele>
        <time>1970-01-01T00:00:00Z</time>
      </trkpt>
      <trkpt lat="50.248337974771857" lon="6.487857000902295">
        <ele>0</ele>
        <time>1970-01-01T00:00:00Z</time>
      </trkpt>
      <trkpt lat="50.247731963172555" lon="6.487650973722339">
        <ele>0</ele>
        <time>1970-01-01T00:00:00Z</time>
      </trkpt>
      <trkpt lat="50.24701002985239" lon="6.487548965960741">
        <ele>0</ele>
        <time>1970-01-01T00:00:00Z</time>
      </trkpt>
      <trkpt lat="50.246019037440419" lon="6.486618993803859">
        <ele>0</ele>
        <time>1970-01-01T00:00:00Z</time>
      </trkpt>
      <trkpt lat="50.243934039026499" lon="6.486266031861305">
        <ele>0</ele>
        <time>1970-01-01T00:00:00Z</time>
      </trkpt>
      <trkpt lat="50.243264995515347" lon="6.485683992505074">
        <ele>0</ele>
        <time>1970-01-01T00:00:00Z</time>
      </trkpt>
      <trkpt lat="50.242845984175801" lon="6.485004974529147">
        <ele>0</ele>
        <time>1970-01-01T00:00:00Z</time>
      </trkpt>
      <trkpt lat="50.242274003103375" lon="6.484755026176572">
        <ele>0</ele>
        <time>1970-01-01T00:00:00Z</time>
      </trkpt>
      <trkpt lat="50.241422988474369" lon="6.483650039881468">
        <ele>0</ele>
        <time>1970-01-01T00:00:00Z</time>
      </trkpt>
      <trkpt lat="50.240742964670062" lon="6.482985019683838">
        <ele>0</ele>
        <time>1970-01-01T00:00:00Z</time>
      </trkpt>
      <trkpt lat="50.23981299251318" lon="6.481168996542692">
        <ele>0</ele>
        <time>1970-01-01T00:00:00Z</time>
      </trkpt>
      <trkpt lat="50.23891101591289" lon="6.480614030733705">
        <ele>0</ele>
        <time>1970-01-01T00:00:00Z</time>
      </trkpt>
      <trkpt lat="50.239908965304494" lon="6.479790005832911">
        <ele>0</ele>
        <time>1970-01-01T00:00:00Z</time>
      </trkpt>
      <trkpt lat="50.239230031147599" lon="6.479138983413577">
        <ele>0</ele>
        <time>1970-01-01T00:00:00Z</time>
      </trkpt>
      <trkpt lat="50.238860975950956" lon="6.478288974612951">
        <ele>0</ele>
        <time>1970-01-01T00:00:00Z</time>
      </trkpt>
      <trkpt lat="50.238238032907248" lon="6.47734098136425">
        <ele>0</ele>
        <time>1970-01-01T00:00:00Z</time>
      </trkpt>
      <trkpt lat="50.237444015219808" lon="6.474747033789754">
        <ele>0</ele>
        <time>1970-01-01T00:00:00Z</time>
      </trkpt>
      <trkpt lat="50.237036990001798" lon="6.475035035982728">
        <ele>0</ele>
        <time>1970-01-01T00:00:00Z</time>
      </trkpt>
      <trkpt lat="50.236788969486952" lon="6.472720960155129">
        <ele>0</ele>
        <time>1970-01-01T00:00:00Z</time>
      </trkpt>
      <trkpt lat="50.234563993290067" lon="6.473791999742389">
        <ele>0</ele>
        <time>1970-01-01T00:00:00Z</time>
      </trkpt>
      <trkpt lat="50.233942978084087" lon="6.473376005887985">
        <ele>0</ele>
        <time>1970-01-01T00:00:00Z</time>
      </trkpt>
      <trkpt lat="50.232707988470793" lon="6.470301020890474">
        <ele>0</ele>
        <time>1970-01-01T00:00:00Z</time>
      </trkpt>
      <trkpt lat="50.232558958232403" lon="6.468417020514607">
        <ele>0</ele>
        <time>1970-01-01T00:00:00Z</time>
      </trkpt>
      <trkpt lat="50.231120958924294" lon="6.46971202455461">
        <ele>0</ele>
        <time>1970-01-01T00:00:00Z</time>
      </trkpt>
      <trkpt lat="50.230518970638514" lon="6.468061963096261">
        <ele>0</ele>
        <time>1970-01-01T00:00:00Z</time>
      </trkpt>
      <trkpt lat="50.229479027912021" lon="6.469027977436781">
        <ele>0</ele>
        <time>1970-01-01T00:00:00Z</time>
      </trkpt>
      <trkpt lat="50.228690039366484" lon="6.469574980437756">
        <ele>0</ele>
        <time>1970-01-01T00:00:00Z</time>
      </trkpt>
      <trkpt lat="50.226285019889474" lon="6.465650992468">
        <ele>0</ele>
        <time>1970-01-01T00:00:00Z</time>
      </trkpt>
      <trkpt lat="50.226200027391315" lon="6.462571984156966">
        <ele>0</ele>
        <time>1970-01-01T00:00:00Z</time>
      </trkpt>
      <trkpt lat="50.225986959412694" lon="6.461070030927658">
        <ele>0</ele>
        <time>1970-01-01T00:00:00Z</time>
      </trkpt>
      <trkpt lat="50.225423024967313" lon="6.459922967478633">
        <ele>0</ele>
        <time>1970-01-01T00:00:00Z</time>
      </trkpt>
      <trkpt lat="50.224701007828116" lon="6.459386022761464">
        <ele>0</ele>
        <time>1970-01-01T00:00:00Z</time>
      </trkpt>
      <trkpt lat="50.223781010136008" lon="6.457206979393959">
        <ele>0</ele>
        <time>1970-01-01T00:00:00Z</time>
      </trkpt>
      <trkpt lat="50.223484961315989" lon="6.456438023597002">
        <ele>0</ele>
        <time>1970-01-01T00:00:00Z</time>
      </trkpt>
      <trkpt lat="50.222505033016205" lon="6.455214014276862">
        <ele>0</ele>
        <time>1970-01-01T00:00:00Z</time>
      </trkpt>
      <trkpt lat="50.220934012904763" lon="6.453671995550394">
        <ele>0</ele>
        <time>1970-01-01T00:00:00Z</time>
      </trkpt>
      <trkpt lat="50.219563990831375" lon="6.454361993819475">
        <ele>0</ele>
        <time>1970-01-01T00:00:00Z</time>
      </trkpt>
      <trkpt lat="50.217989031225443" lon="6.453898977488279">
        <ele>0</ele>
        <time>1970-01-01T00:00:00Z</time>
      </trkpt>
      <trkpt lat="50.217598015442491" lon="6.452869009226561">
        <ele>0</ele>
        <time>1970-01-01T00:00:00Z</time>
      </trkpt>
      <trkpt lat="50.216918997466564" lon="6.453479966148734">
        <ele>0</ele>
        <time>1970-01-01T00:00:00Z</time>
      </trkpt>
      <trkpt lat="50.216368976980448" lon="6.453004041686654">
        <ele>0</ele>
        <time>1970-01-01T00:00:00Z</time>
      </trkpt>
      <trkpt lat="50.215723989531398" lon="6.453108983114362">
        <ele>0</ele>
        <time>1970-01-01T00:00:00Z</time>
      </trkpt>
      <trkpt lat="50.21426604129374" lon="6.449781032279134">
        <ele>0</ele>
        <time>1970-01-01T00:00:00Z</time>
      </trkpt>
      <trkpt lat="50.21375197917223" lon="6.450102981179953">
        <ele>0</ele>
        <time>1970-01-01T00:00:00Z</time>
      </trkpt>
      <trkpt lat="50.212904987856746" lon="6.447989987209439">
        <ele>0</ele>
        <time>1970-01-01T00:00:00Z</time>
      </trkpt>
      <trkpt lat="50.212305011227727" lon="6.44728004001081">
        <ele>0</ele>
        <time>1970-01-01T00:00:00Z</time>
      </trkpt>
      <trkpt lat="50.211855992674828" lon="6.446868991479278">
        <ele>0</ele>
        <time>1970-01-01T00:00:00Z</time>
      </trkpt>
      <trkpt lat="50.211601015180349" lon="6.44592996686697">
        <ele>0</ele>
        <time>1970-01-01T00:00:00Z</time>
      </trkpt>
      <trkpt lat="50.211643008515239" lon="6.44496101886034">
        <ele>0</ele>
        <time>1970-01-01T00:00:00Z</time>
      </trkpt>
      <trkpt lat="50.20971299149096" lon="6.439796006307006">
        <ele>0</ele>
        <time>1970-01-01T00:00:00Z</time>
      </trkpt>
      <trkpt lat="50.209983978420496" lon="6.439472967758775">
        <ele>0</ele>
        <time>1970-01-01T00:00:00Z</time>
      </trkpt>
      <trkpt lat="50.210648998618126" lon="6.441091010347009">
        <ele>0</ele>
        <time>1970-01-01T00:00:00Z</time>
      </trkpt>
      <trkpt lat="50.211384007707238" lon="6.43892202526331">
        <ele>0</ele>
        <time>1970-01-01T00:00:00Z</time>
      </trkpt>
      <trkpt lat="50.212124967947602" lon="6.437439015135169">
        <ele>0</ele>
        <time>1970-01-01T00:00:00Z</time>
      </trkpt>
      <trkpt lat="50.211439998820424" lon="6.435751989483833">
        <ele>0</ele>
        <time>1970-01-01T00:00:00Z</time>
      </trkpt>
      <trkpt lat="50.210324032232165" lon="6.4340890198946">
        <ele>0</ele>
        <time>1970-01-01T00:00:00Z</time>
      </trkpt>
      <trkpt lat="50.209698993712664" lon="6.432231003418565">
        <ele>0</ele>
        <time>1970-01-01T00:00:00Z</time>
      </trkpt>
      <trkpt lat="50.210280027240515" lon="6.432073004543781">
        <ele>0</ele>
        <time>1970-01-01T00:00:00Z</time>
      </trkpt>
      <trkpt lat="50.209724977612495" lon="6.431794976815581">
        <ele>0</ele>
        <time>1970-01-01T00:00:00Z</time>
      </trkpt>
      <trkpt lat="50.209804018959403" lon="6.431286027655006">
        <ele>0</ele>
        <time>1970-01-01T00:00:00Z</time>
      </trkpt>
      <trkpt lat="50.21016301587224" lon="6.43088897690177">
        <ele>0</ele>
        <time>1970-01-01T00:00:00Z</time>
      </trkpt>
      <trkpt lat="50.209503024816513" lon="6.429480984807015">
        <ele>0</ele>
        <time>1970-01-01T00:00:00Z</time>
      </trkpt>
      <trkpt lat="50.208825012668967" lon="6.428901040926576">
        <ele>0</ele>
        <time>1970-01-01T00:00:00Z</time>
      </trkpt>
      <trkpt lat="50.207994030788541" lon="6.428748993203044">
        <ele>0</ele>
        <time>1970-01-01T00:00:00Z</time>
      </trkpt>
      <trkpt lat="50.207109991461039" lon="6.429034983739257">
        <ele>0</ele>
        <time>1970-01-01T00:00:00Z</time>
      </trkpt>
      <trkpt lat="50.206650998443365" lon="6.42861102707684">
        <ele>0</ele>
        <time>1970-01-01T00:00:00Z</time>
      </trkpt>
      <trkpt lat="50.207450967282057" lon="6.427797982469201">
        <ele>0</ele>
        <time>1970-01-01T00:00:00Z</time>
      </trkpt>
      <trkpt lat="50.207478040829301" lon="6.427767975255847">
        <ele>0</ele>
        <time>1970-01-01T00:00:00Z</time>
      </trkpt>
      <trkpt lat="50.207513999193907" lon="6.427765963599086">
        <ele>0</ele>
        <time>1970-01-01T00:00:00Z</time>
      </trkpt>
      <trkpt lat="50.207539983093739" lon="6.427722964435816">
        <ele>0</ele>
        <time>1970-01-01T00:00:00Z</time>
      </trkpt>
      <trkpt lat="50.20758499391377" lon="6.427720030769706">
        <ele>0</ele>
        <time>1970-01-01T00:00:00Z</time>
      </trkpt>
      <trkpt lat="50.207647019997239" lon="6.427689017727971">
        <ele>0</ele>
        <time>1970-01-01T00:00:00Z</time>
      </trkpt>
      <trkpt lat="50.207663029432297" lon="6.427618023008108">
        <ele>0</ele>
        <time>1970-01-01T00:00:00Z</time>
      </trkpt>
      <trkpt lat="50.207645008340478" lon="6.427591033279896">
        <ele>0</ele>
        <time>1970-01-01T00:00:00Z</time>
      </trkpt>
      <trkpt lat="50.207556998357177" lon="6.427693963050842">
        <ele>0</ele>
        <time>1970-01-01T00:00:00Z</time>
      </trkpt>
      <trkpt lat="50.207618018612266" lon="6.42762104049325">
        <ele>0</ele>
        <time>1970-01-01T00:00:00Z</time>
      </trkpt>
      <trkpt lat="50.207601003348827" lon="6.427650041878223">
        <ele>0</ele>
        <time>1970-01-01T00:00:00Z</time>
      </trkpt>
    </trkseg>
  </trk>

</gpx>